Doha, Qatar

1:15 PM +03 on December 17, 2017 (GMT +0300)
Doha International

Weather History for OTBD - November, 2012

Change the Weather History Date:

Monday, November 19, 2012

  Actual Average Record
Temperature  
Mean Temperature 78 °F -  
Max Temperature 83 °F 79 °F 93 °F (2007)
Min Temperature 72 °F 62 °F 35 °F (1998)
Cooling Degree Days 12    
Growing Degree Days 28 (Base 50)    
Moisture  
Dew Point 66 °F    
Average Humidity 66    
Maximum Humidity 74    
Minimum Humidity 46    
Precipitation  
Precipitation 0.00 in 0.01 in - ()
Sea Level Pressure  
Sea Level Pressure 29.97 in    
Wind  
Wind Speed 3 mph ()    
Max Wind Speed 10 mph    
Max Gust Speed -    
Visibility 6.1 miles    
Events      
Averages and records for this station are not official NWS values.
T = Trace of Precipitation, MM = Missing Value Source: Averaged Metar Reports

Daily Weather History Graph

Daily Weather History Graph

Search for Another Location

Airport or City:

Trip Planner

Search our weather history database for the weather conditions in past years. The results will help you decide how hot, cold, wet, or windy it might be!

Date:

Astronomy

Nov. 19, 2012 Rise Set
Actual Time 5:53 AM +03 4:44 PM +03
Civil Twilight 5:29 AM +03 5:08 PM +03
Nautical Twilight 5:01 AM +03 5:36 PM +03
Astronomical Twilight 4:34 AM +03 6:04 PM +03
Moon 10:53 AM +03 (11/19) 10:31 PM +03 (11/19)
Length of Visible Light 11h 39m
Length of Day
10h 50m
Waxing Crescent, 37% of the Moon is Illuminated
Nov 19
Waxing Crescent
Nov 20
First Quarter
Nov 28
Full
Dec 6
Last Quarter
Dec 13
New

Hourly Weather History & Observations

Time (+03) Temp. Heat Index Dew Point Humidity Pressure Visibility Wind Dir Wind Speed Gust Speed Precip Events Conditions
12:00 AM 75.2 °F - 64.4 °F 69% 30.01 in - Variable 2.3 mph - N/A   Clear
12:30 AM 75.2 °F - 64.4 °F 69% 30.01 in - Variable 2.3 mph - N/A   Clear
1:00 AM 75.2 °F - 64.4 °F 69% 29.98 in - Variable 2.3 mph - N/A   Clear
1:30 AM 75.2 °F - 64.4 °F 69% 29.98 in - Variable 2.3 mph - N/A   Clear
2:00 AM 75.2 °F - 64.4 °F 69% 29.98 in - Variable 2.3 mph - N/A   Clear
2:30 AM 73.4 °F - 64.4 °F 73% 29.98 in - Calm Calm - N/A   Clear
3:00 AM 73 °F - 65 °F 69% 29.98 in 6 mi Calm Calm - -   Scattered Clouds
3:00 AM 73.4 °F - 64.4 °F 73% 29.98 in - Calm Calm - N/A   Clear
3:30 AM 73.4 °F - 64.4 °F 73% 29.98 in - Calm Calm - N/A   Clear
4:00 AM 73.4 °F - 62.6 °F 69% 29.98 in - Variable 1.2 mph - N/A   Clear
4:30 AM 73.4 °F - 64.4 °F 73% 29.98 in - Calm Calm - N/A   Clear
5:00 AM 73.4 °F - 64.4 °F 73% 29.98 in - SW 3.5 mph - N/A   Clear
5:30 AM 73.4 °F - 64.4 °F 73% 29.98 in - WSW 3.5 mph - N/A   Clear
6:00 AM 73.4 °F - 64.4 °F 73% 30.01 in - Variable 1.2 mph - N/A   Clear
6:30 AM 73.4 °F - 64.4 °F 73% 30.01 in 5.0 mi Variable 1.2 mph - N/A   Unknown
7:00 AM 75.2 °F - 64.4 °F 69% 30.01 in 5.0 mi Variable 2.3 mph - N/A   Unknown
7:30 AM 77.0 °F - 64.4 °F 65% 30.01 in 5.0 mi Variable 2.3 mph - N/A   Unknown
8:00 AM 78.8 °F - 66.2 °F 65% 30.01 in 5.6 mi Variable 1.2 mph - N/A   Unknown
8:30 AM 80.6 °F 82.7 °F 66.2 °F 61% 30.01 in - SE 3.5 mph - N/A   Clear
9:00 AM 80 °F - 69 °F 60% 30.02 in 6 mi East 5.8 mph - -   Scattered Clouds
9:00 AM 80.6 °F 83.2 °F 68.0 °F 65% 30.01 in - East 5.8 mph - N/A   Clear
9:30 AM 80.6 °F 83.2 °F 68.0 °F 65% 30.01 in - East 5.8 mph - N/A   Clear
10:00 AM 82.4 °F 86.3 °F 69.8 °F 66% 30.01 in 6.2 mi East 5.8 mph - N/A   Partly Cloudy
10:30 AM 82.4 °F 85.4 °F 68.0 °F 62% 29.98 in 6.2 mi East 8.1 mph - N/A   Partly Cloudy
11:00 AM 82.4 °F 85.4 °F 68.0 °F 62% 29.98 in 6.2 mi ESE 8.1 mph - N/A   Partly Cloudy
11:30 AM 82.4 °F 84.6 °F 66.2 °F 58% 29.98 in 6.2 mi East 9.2 mph - N/A   Partly Cloudy
12:00 PM 82.4 °F 84.6 °F 66.2 °F 58% 29.95 in - East 10.4 mph - N/A   Clear
12:30 PM 82.4 °F 83.9 °F 64.4 °F 54% 29.95 in - East 8.1 mph - N/A   Clear
1:00 PM 80.6 °F 82.7 °F 66.2 °F 61% 29.95 in - East 6.9 mph - N/A   Clear
1:30 PM 82.4 °F 83.9 °F 64.4 °F 54% 29.95 in - East 8.1 mph - N/A   Clear
2:00 PM 84.2 °F 85.0 °F 62.6 °F 48% 29.92 in - SE 9.2 mph - N/A   Clear
3:00 PM 82 °F - 65 °F 46% 29.94 in 9 mi ESE 6.9 mph - -   Scattered Clouds
3:00 PM 82.4 °F 83.9 °F 64.4 °F 54% 29.92 in 6.2 mi ESE 6.9 mph - N/A   Scattered Clouds
3:30 PM 80.6 °F 82.3 °F 64.4 °F 58% 29.92 in 6.2 mi East 6.9 mph - N/A   Scattered Clouds
4:00 PM 80.6 °F 83.2 °F 68.0 °F 65% 29.92 in 6.2 mi ESE 8.1 mph - N/A   Mostly Cloudy
4:30 PM 78.8 °F - 69.8 °F 74% 29.95 in 6.2 mi SE 6.9 mph - N/A   Mostly Cloudy
5:00 PM 78.8 °F - 69.8 °F 74% 29.95 in 6.2 mi SE 8.1 mph - N/A   Mostly Cloudy
5:30 PM 78.8 °F - 69.8 °F 74% 29.95 in - SE 6.9 mph - N/A   Clear
6:00 PM 78.8 °F - 69.8 °F 74% 29.95 in - SE 6.9 mph - N/A   Clear
6:30 PM 78.8 °F - 66.2 °F 65% 29.95 in - SE 6.9 mph - N/A   Clear
7:00 PM 78.8 °F - 66.2 °F 65% 29.95 in - SE 4.6 mph - N/A   Clear
7:30 PM 78.8 °F - 66.2 °F 65% 29.98 in - Variable 1.2 mph - N/A   Clear
8:00 PM 78.8 °F - 66.2 °F 65% 29.98 in - Variable 1.2 mph - N/A   Clear
8:30 PM 78.8 °F - 66.2 °F 65% 29.98 in - Variable 1.2 mph - N/A   Clear
9:00 PM 79 °F - 67 °F 59% 29.99 in 6 mi 1.2 mph - -   Partly Cloudy
9:00 PM 78.8 °F - 68.0 °F 69% 29.98 in - Variable 1.2 mph - N/A   Clear
9:30 PM 78.8 °F - 66.2 °F 65% 29.95 in - East 6.9 mph - N/A   Clear
10:00 PM 78.8 °F - 68.0 °F 69% 29.98 in - ENE 3.5 mph - N/A   Clear
10:30 PM 78.8 °F - 68.0 °F 69% 29.98 in - ENE 3.5 mph - N/A   Clear
11:00 PM 78.8 °F - 68.0 °F 69% 29.95 in - East 5.8 mph - N/A   Clear
11:30 PM 78.8 °F - 66.2 °F 65% 29.95 in - East 8.1 mph - N/A   Clear